VK3BKO-13 Weather Reports


Display with metric or nautical units.
time (UTC)temp
F
wind
direction
speed
MPH
gust
MPH
rain 1hr
in
rain 24hr
in
rain mn
in
humidity
%
barometer
mb
20260505113203 58 332 1.0 1.0 0.00 0.00 0.00 70 1022.0
20260505111704 58 326 0.0 0.0 0.00 0.00 0.00 70 1022.0
20260505110204 58 338 1.0 1.0 0.00 0.00 0.00 68 1022.0
20260505101704 58 335 0.0 1.0 0.00 0.00 0.00 72 1021.7
20260505100204 58 319 0.0 1.0 0.00 0.00 0.00 73 1022.0
20260505094704 58 336 0.0 0.0 0.00 0.00 0.00 72 1021.7
20260505093203 58 338 0.0 0.0 0.00 0.00 0.00 71 1022.0
20260505091704 59 352 1.0 1.0 0.00 0.00 0.00 71 1022.0
20260505090204 59 316 1.0 1.0 0.00 0.00 0.00 71 1021.7
20260505084704 59 329 0.0 0.0 0.00 0.00 0.00 71 1021.7
20260505083204 59 344 1.0 2.0 0.00 0.00 0.00 71 1021.7
20260505081704 59 329 0.0 0.0 0.00 0.00 0.00 72 1021.4
20260505080203 59 311 2.0 2.0 0.00 0.00 0.00 72 1021.4
20260505074703 59 324 1.0 1.0 0.00 0.00 0.00 71 1021.4
20260505073203 59 288 3.0 3.0 0.00 0.00 0.00 71 1021.0
20260505071704 59 331 2.0 2.0 0.00 0.00 0.00 70 1021.0
20260505070204 60 273 4.0 6.0 0.00 0.00 0.00 68 1021.0
20260505064704 60 261 1.0 2.0 0.00 0.00 0.00 67 1020.7
20260505063203 60 295 2.0 3.0 0.00 0.00 0.00 65 1020.7
20260505061703 61 298 3.0 4.0 0.00 0.00 0.00 63 1020.7
20260505060203 61 319 2.0 2.0 0.00 0.00 0.00 63 1020.7
20260505054703 61 266 2.0 2.0 0.00 0.00 0.00 63 1020.4
20260505053203 61 317 3.0 3.0 0.00 0.00 0.00 64 1020.0
20260505051703 61 249 2.0 4.0 0.00 0.00 0.00 65 1020.0
20260505050203 60 320 2.0 3.0 0.00 0.00 0.00 66 1020.0
20260505041703 60 240 2.0 2.0 0.00 0.00 0.00 63 1019.7
20260505040203 61 288 2.0 2.0 0.00 0.00 0.00 66 1019.7
20260505034703 61 338 1.0 2.0 0.00 0.00 0.00 65 1019.3
20260505033204 61 328 1.0 2.0 0.00 0.00 0.00 64 1019.7
20260505031704 62 285 4.0 6.0 0.00 0.00 0.00 62 1019.7
20260505030203 63 316 4.0 7.0 0.00 0.00 0.00 63 1019.7
20260505024704 63 300 6.0 7.0 0.00 0.00 0.00 64 1019.7
20260505023204 60 338 1.0 2.0 0.00 0.00 0.00 68 1019.7
20260505021704 60 262 4.0 6.0 0.00 0.00 0.00 66 1019.7
20260505020204 60 284 4.0 7.0 0.00 0.00 0.00 66 1019.7
20260505014704 60 290 3.0 4.0 0.00 0.00 0.00 68 1020.0
20260505013204 60 241 6.0 9.0 0.00 0.00 0.00 68 1019.7
20260505011703 59 301 5.0 6.0 0.00 0.00 0.00 70 1020.0
20260505010203 59 280 6.0 8.0 0.00 0.00 0.00 72 1020.0
20260505004704 59 277 4.0 4.0 0.00 0.00 0.00 72 1020.0
20260505003204 59 343 3.0 4.0 0.00 0.00 0.00 73 1019.7
20260505001704 59 263 8.0 10.0 0.00 0.00 0.00 73 1019.3
20260505000204 58 305 5.0 10.0 0.00 0.00 0.00 74 1019.3
20260504234704 58 348 2.0 3.0 0.00 0.00 0.00 75 1019.0
20260504233203 57 321 3.0 4.0 0.00 0.00 0.00 77 1019.0
20260504231703 58 352 4.0 6.0 0.00 0.00 0.00 76 1019.0
20260504230203 58 289 3.0 4.0 0.00 0.00 0.00 77 1018.7
20260504224704 57 298 3.0 4.0 0.00 0.00 0.00 78 1018.7
20260504223302 58 319 2.0 3.0 0.00 0.00 0.00 78 1018.3
20260504221704 56 323 5.0 8.0 0.00 0.00 0.00 80 1018.0
20260504220203 57 341 1.0 2.0 0.00 0.00 0.00 80 1017.6
20260504214704 57 286 4.0 4.0 0.00 0.00 0.00 81 1017.6
20260504213203 56 330 4.0 6.0 0.00 0.00 0.00 81 1017.3
20260504211704 56 305 2.0 2.0 0.00 0.00 0.00 82 1017.0
20260504210203 56 239 2.0 3.0 0.00 0.00 0.00 82 1017.0
20260504204703 56 330 2.0 3.0 0.00 0.00 0.00 82 1016.6
20260504203204 56 300 2.0 2.0 0.00 0.00 0.00 83 1016.6
20260504201703 56 306 2.0 3.0 0.00 0.00 0.00 82 1015.9
20260504200204 57 285 3.0 3.0 0.00 0.00 0.00 81 1015.9
20260504194703 56 315 4.0 7.0 0.00 0.00 0.00 81 1015.6
20260504193204 57 343 3.0 4.0 0.00 0.00 0.00 80 1015.6
20260504191704 57 242 5.0 6.0 0.00 0.00 0.00 79 1015.6
20260504190204 57 322 4.0 4.0 0.00 0.00 0.00 79 1015.3
20260504184703 57 327 2.0 2.0 0.00 0.00 0.00 79 1015.3
20260504183204 57 318 3.0 4.0 0.00 0.00 0.00 78 1014.9
20260504181704 57 300 6.0 8.0 0.00 0.00 0.00 78 1014.9
20260504180204 57 340 3.0 4.0 0.00 0.00 0.00 78 1014.6
20260504174704 57 280 5.0 6.0 0.00 0.00 0.00 78 1014.3
20260504173204 57 296 3.0 3.0 0.00 0.00 0.00 77 1014.3
20260504171703 57 324 6.0 9.0 0.00 0.00 0.00 76 1014.3
20260504170203 57 320 4.0 9.0 0.00 0.00 0.00 75 1013.9
20260504160204 58 350 9.0 11.0 0.00 0.00 0.00 73 1013.9
20260504150203 58 280 4.0 6.0 0.00 0.00 0.00 73 1013.6
20260504140204 59 325 5.0 7.0 0.00 0.00 0.00 72 1012.9
20260504130203 59 304 5.0 7.0 0.00 0.00 0.01 72 1012.9
20260504120204 59 255 7.0 9.0 0.00 0.00 0.01 76 1012.2